Showing default

OPS 1527 (OV3-1), 2150

Orbit data source: Space-Track

OPS 1527 (OV3-1), 2150 is a payload satellite owned by USAF OAR (US) in LEO that was launched on Fri, 22 Apr 1966 UTC via an SCOUT B launch vehicle from the Air Force Western Test Range (AFWTR). Payload-class satellites include a variety of spacecraft equipped with specific instruments for various scientific and technological missions. These include communications satellites like Starlink; space stations such as the ISS; scientific satellites like the Hubble; Earth observation satellites from companies like Planet Labs, Umbra, and HawkEye 360; GPS; miniature CubeSats for education and research; and military/defense satellites.

Loading next visibility...
Identifier
2150, 1966-034A
Orbit
LEO
Country
Flag of USUS
Related business
Manufacturer
Space General
Mission
Spacecraft
Bus & Motor
OV3, Unknown motor
Mass
69 kg wet, 69 kg dry
Launch date (UTC)
1966-04-22 (60 years ago)
Launch vehicle
SCOUT B
Launch site
Air Force Western Test Range (AFWTR)
Object type
Payload
Rocket body
Debris
Shape & HBR
Unknown
Radar Cross Section
Medium (>0.1 m² and <1 m²)

Expand to show TLE details & history
Last TLE update: 12 hours ago

TLE from 12 hours ago
0 OPS 1527 (OV3-1)
1  2150U 66034A   26035.78887315  .00015481  00000-0  81579-3 0  9992
2  2150  82.3675 267.1798 1405906 336.8083  17.5068 12.58919312385191
Epoch: 2026-02-04T18:55Z
TLE epoch observation values (Epoch: 2026-02-04T18:55:58.640Z)
Latitude
-0.00001°
Longitude
-151.76495°
Altitude
400.858 km
Speed
8.16 km/s
True Right ascension
17h 48m 43s
True Declination
0° 00' 00"
Sunlit
Object was in daylight at epoch
Visualization orbit readout
Latitude
Unknown
Longitude
Unknown
Altitude
Unknown
Speed
Unknown
Apparent Right ascension
Unknown
Apparent Declination
Unknown
Sunlit
N/A
Visualization observer readout
Local Sidereal Time
08:32:09
Azimuth
Unknown
Elevation
Unknown
Doppler factor
Unknown
Orbital elements
Apogee altitude
2,521.661 km
Perigee altitude
327.661 km
Semi-major axis
7,802.798 km
Eccentricity
0.14059
Inclination
82.3675°
RAAN
267.1798°
Arg. of periapsis
336.8083°
True anomaly
23.30912°
Mean anomaly
17.5068°
Eccentric anomaly
20.30167°
Mean motion
3.14896 °/min
Orbital period
114.32 mins
BSTAR
0.00081579
Loading maneuver chart data...
Computing Atmospheric mass density...
Loading historical data...
Loading historical data...
Loading historical data...
Loading historical data...
Loading historical data...
Loading historical data...
Loading historical data...
Other satellites on launch #34 in the year 1966 (1966-04-22 UTC)

Documentation

Showing up to 5 results
|